TimeCST,TemperatureF,Dew PointF,Humidity,Sea Level PressureIn,VisibilityMPH,Wind Direction,Wind SpeedMPH,Gust SpeedMPH,PrecipitationIn,Events,Conditions,WindDirDegrees,DateUTC
12:53 AM,44.1,42.1,93,30.17,5.0,Calm,Calm,-,N/A,,Clear,0,2012-11-22 06:53:00
1:53 AM,42.1,39.9,92,30.17,4.0,Calm,Calm,-,N/A,,Clear,0,2012-11-22 07:53:00
2:53 AM,42.1,39.0,89,30.17,5.0,Calm,Calm,-,N/A,,Clear,0,2012-11-22 08:53:00
3:53 AM,39.9,37.9,93,30.18,5.0,Calm,Calm,-,N/A,,Clear,0,2012-11-22 09:53:00
4:53 AM,39.9,37.9,93,30.19,5.0,Calm,Calm,-,N/A,,Clear,0,2012-11-22 10:53:00
5:53 AM,39.0,36.0,89,30.21,5.0,ENE,3.5,-,N/A,,Clear,60,2012-11-22 11:53:00
6:53 AM,39.9,37.9,93,30.22,4.0,Calm,Calm,-,N/A,,Clear,0,2012-11-22 12:53:00
7:53 AM,51.1,46.9,86,30.24,7.0,Calm,Calm,-,N/A,,Clear,0,2012-11-22 13:53:00
8:53 AM,62.1,51.1,67,30.25,10.0,East,3.5,-,N/A,,Clear,80,2012-11-22 14:53:00
9:53 AM,68.0,48.0,49,30.26,10.0,Calm,Calm,-,N/A,,Clear,0,2012-11-22 15:53:00
10:53 AM,73.0,46.9,39,30.24,10.0,Calm,Calm,-,N/A,,Clear,0,2012-11-22 16:53:00
11:53 AM,73.9,45.0,35,30.22,10.0,Calm,Calm,-,N/A,,Clear,0,2012-11-22 17:53:00
12:53 PM,75.0,45.0,34,30.19,10.0,Calm,Calm,-,N/A,,Clear,0,2012-11-22 18:53:00
1:53 PM,73.9,46.0,37,30.18,10.0,Calm,Calm,-,N/A,,Clear,0,2012-11-22 19:53:00
2:53 PM,73.9,45.0,35,30.17,10.0,Calm,Calm,-,N/A,,Clear,0,2012-11-22 20:53:00
3:53 PM,73.0,46.0,38,30.18,10.0,SSW,3.5,-,N/A,,Clear,210,2012-11-22 21:53:00
4:53 PM,64.9,48.9,56,30.19,10.0,Calm,Calm,-,N/A,,Clear,0,2012-11-22 22:53:00
5:53 PM,55.9,48.9,77,30.20,10.0,Calm,Calm,-,N/A,,Clear,0,2012-11-22 23:53:00
6:53 PM,53.1,48.0,83,30.21,10.0,Calm,Calm,-,N/A,,Clear,0,2012-11-23 00:53:00
7:53 PM,50.0,46.9,89,30.22,9.0,Calm,Calm,-,N/A,,Clear,0,2012-11-23 01:53:00
8:53 PM,48.0,45.0,89,30.22,6.0,Calm,Calm,-,N/A,,Clear,0,2012-11-23 02:53:00
9:53 PM,46.0,44.1,93,30.22,5.0,Calm,Calm,-,N/A,,Clear,0,2012-11-23 03:53:00
10:53 PM,45.0,43.0,93,30.22,5.0,Calm,Calm,-,N/A,,Clear,0,2012-11-23 04:53:00
11:53 PM,45.0,42.1,90,30.22,5.0,Calm,Calm,-,N/A,,Clear,0,2012-11-23 05:53:00